Simultaneous Nadir Overpasses (SNOs) Predictions

Prediction of SNOs between NOAA-20 and AQUA Satellite Orbit:

Table of predicted SNOs for the next 14.0 days since TLE Epoch: 10/31/2020
Index Date (NOAA-20) Time (NOAA-20) Lat,Lon (NOAA-20) SZA (NOAA-20 ) Date (AQUA) Time (AQUA) Lat,Lon (AQUA) SZA (AQUA ) Distance(km) Time Diff (sec)
1 11/01/2020 22:12:49 -75.69, -95.28 68.90 11/01/2020 22:13:26 -75.69, -95.29 68.93 0.46 37
2 11/01/2020 23:03:10 76.74, 75.74 109.92 11/01/2020 23:02:30 76.74, 75.70 109.97 1.13 40
3 11/04/2020 14:29:36 -76.14, 21.98 68.59 11/04/2020 14:29:46 -76.13, 21.93 68.58 1.41 10
4 11/04/2020 15:19:59 77.07,-167.14 110.34 11/04/2020 15:18:52 77.07,-167.22 110.42 2.08 67
5 11/07/2020 05:56:00 75.52, -31.61 112.88 11/07/2020 05:57:00 75.51, -31.68 112.85 2.20 60
6 11/07/2020 06:46:31 -76.21, 138.00 67.89 11/07/2020 06:46:13 -76.22, 138.10 67.90 2.88 18
7 11/09/2020 22:12:54 75.59, 84.38 113.56 11/09/2020 22:13:26 75.60, 84.45 113.51 1.93 32
8 11/09/2020 23:03:16 -76.69,-104.48 67.68 11/09/2020 23:02:31 -76.69,-104.46 67.64 0.59 45
9 11/12/2020 14:29:39 76.13,-158.09 113.69 11/12/2020 14:29:44 76.12,-158.10 113.69 0.49 5
